Lid_Strength_Index
2 2 2 2 2 2 2 2 2 2 2 2 2 2 2 1 2 4 9 5 3 -2 -0 6 7 7 8 9 9 10 13 16 14 10 10 7 8 5 4 5 5 4 4 3 2
2 2 2 2 2 2 2 2 2 2 2 2 2 2 2 2 5 7 2 -2 -2 -1 7 8 8 7 10 10 9 11 14 12 7 7 9 7 7 7 6 6 6 5 3 3 2
2 2 2 2 2 2 2 2 2 2 2 2 2 2 2 2 5 6 -2 -2 -2 0 5 6 6 7 11 11 11 11 12 8 7 6 6 8 7 5 7 8 6 6 4 3 3
2 2 2 2 2 2 2 2 2 2 2 2 2 2 2 5 10 5 -3 -3 -3 3 5 6 7 11 11 11 10 11 7 7 7 6 7 7 5 6 6 6 4 4 3 3 3
2 2 2 2 2 2 3 3 3 2 2 2 2 2 4 6 6 2 -3 -3 3 5 7 7 8 11 11 10 10 8 8 6 6 6 7 6 7 6 6 4 3 3 3 4 4
2 2 3 3 3 3 3 3 3 3 3 2 2 2 4 8 3 2 4 4 4 6 6 7 7 8 9 11 11 9 7 7 7 7 7 7 7 6 6 4 4 4 4 4 4
2 2 3 3 3 3 3 3 3 3 2 2 2 2 4 5 3 3 4 5 5 4 5 5 7 8 9 9 9 6 9 8 8 7 8 6 9 8 5 5 5 5 5 4 4
2 3 3 3 2 3 3 3 3 3 2 2 2 3 6 1 2 4 4 4 4 5 5 5 6 8 9 9 9 10 11 14 9 7 7 7 12 8 5 6 6 5 5 5 4
2 3 3 3 3 3 3 4 3 2 1 1 3 4 6 1 4 3 4 5 6 6 5 3 7 9 9 12 13 12 14 13 11 7 7 9 11 7 5 6 6 6 6 5 5
3 4 4 3 3 3 3 3 2 2 2 2 2 7 5 4 5 4 4 5 5 6 7 7 10 12 12 13 15 14 13 13 13 10 8 10 10 8 6 6 7 6 6 6 5
3 4 4 3 3 4 5 6 8 8 6 7 6 6 5 3 3 5 4 5 5 7 11 10 12 14 12 12 11 11 12 12 10 9 11 10 10 8 7 7 7 7 6 6 6
3 4 4 4 4 4 6 7 6 6 10 6 6 5 3 4 6 5 5 7 7 10 10 11 13 10 9 9 10 11 12 13 9 9 10 10 10 8 7 7 7 7 6 6 6
3 4 4 4 4 6 7 6 5 6 10 7 6 6 6 5 6 6 6 7 9 11 11 11 10 7 9 9 10 11 12 12 11 9 9 11 14 12 9 7 6 6 5 5 6
4 4 4 5 7 6 7 4 4 6 12 8 7 6 5 6 7 4 5 6 9 9 10 10 8 8 9 10 10 12 9 9 9 10 13 11 15 13 13 10 7 7 6 6 5
5 4 5 4 7 8 6 5 4 6 16 6 7 4 5 7 6 6 5 6 8 8 9 10 9 9 10 9 8 10 9 9 10 12 14 13 15 13 10 10 10 9 7 6 5
4 4 4 6 7 6 5 5 7 11 16 8 7 9 9 8 6 6 6 6 6 9 9 9 7 8 8 7 8 8 9 11 12 14 16 14 14 14 13 9 8 7 7 6 5
4 4 5 5 10 7 6 6 11 14 8 8 8 7 9 9 8 7 8 10 11 13 13 10 9 8 7 9 9 10 13 16 16 16 16 13 14 14 10 8 7 8 7 6 5
5 5 6 5 6 6 6 9 14 9 9 7 8 8 9 8 8 7 9 10 9 10 12 13 13 9 8 9 11 12 13 16 18 17 15 12 15 12 8 8 6 6 6 5 6
6 8 7 6 5 6 8 13 12 9 8 9 8 9 9 8 8 9 10 10 9 9 12 13 12 8 7 8 8 12 14 12 14 15 16 15 12 9 8 8 7 7 6 6 7
7 9 8 7 5 6 10 12 10 7 8 8 11 9 11 10 10 10 11 8 8 8 9 10 13 8 7 8 9 10 10 14 15 17 18 15 14 13 10 9 8 8 7 8 7
9 10 7 5 5 9 13 12 9 7 7 8 9 10 10 10 10 10 9 8 7 7 8 10 11 11 9 11 11 11 12 13 14 14 17 17 15 10 9 9 8 8 6 6 6
9 12 6 5 10 11 12 10 8 7 7 7 8 9 9 9 10 10 9 8 6 6 9 9 12 13 11 8 7 9 11 13 15 16 15 15 15 10 8 7 8 7 6 6 6
11 10 7 6 12 12 10 8 8 8 8 8 8 8 8 10 12 9 9 6 7 7 9 9 13 15 13 12 10 11 10 11 12 13 14 16 15 8 8 8 7 7 7 6 6
10 12 10 10 10 11 11 10 10 7 8 7 8 8 9 10 10 10 9 7 6 7 4 7 11 13 14 13 11 12 10 10 12 15 14 14 13 10 9 8 8 7 6 7 7
10 12 11 13 12 12 11 10 10 10 8 8 9 8 9 11 11 10 9 8 7 5 8 10 13 11 10 10 10 10 10 10 12 12 13 12 12 10 10 9 8 7 8 6 6
12 13 9 11 11 11 11 11 10 9 9 9 10 8 9 12 10 11 9 10 10 9 10 9 13 12 12 9 10 11 9 10 10 10 11 11 11 9 9 9 8 7 6 6 6
10 10 11 11 12 13 12 10 10 10 9 8 8 8 9 8 7 7 7 7 8 10 10 10 11 13 15 11 11 14 11 9 9 9 10 12 11 9 9 8 8 7 6 6 6